When you browse on this site, cookies collect data to enhance your experience and personalize the content and advertising you see.
Visit our Privacy Policy to learn more. By continuing to use the site, you agree to this use of cookies and data.
  • en France
  • Liste des pays
  • À 7 jours
  • Température de l'eau
  • Carte satellitaire
  • Carte météo
  • Widgets météo
  • user-avatar
    Se connecter

    Météo par heure à Burrel

    Ce jour, 22 Mai, Mercredi

    Heure Température Précipitation Vent Pression Humidité
    00:00 +14°C° 0 mm 1 m/s 733 mmHg 87%
    01:00 +14°C° 0 mm 1 m/s 733 mmHg 85%
    02:00 +14°C° 0 mm 1 m/s 733 mmHg 85%
    03:00 +13°C° 0 mm 1 m/s 733 mmHg 85%
    04:00 +13°C° 0 mm 1 m/s 733 mmHg 84%
    05:00 +14°C° 0 mm 1 m/s 733 mmHg 80%
    06:00 +16°C° 0 mm 1 m/s 733 mmHg 76%
    07:00 +16°C° 0 mm 0 m/s 733 mmHg 72%
    08:00 +19°C° 0 mm 1 m/s 733 mmHg 69%
    09:00 +20°C° 0 mm 1 m/s 733 mmHg 65%
    10:00 +20°C° 0 mm 2 m/s 733 mmHg 61%
    11:00 +21°C° 0 mm 2 m/s 733 mmHg 61%
    12:00 +21°C° 0 mm 2 m/s 732 mmHg 61%
    13:00 +21°C° 0 mm 3 m/s 732 mmHg 61%
    14:00 +21°C° 0 mm 3 m/s 732 mmHg 62%
    15:00 +21°C° 0 mm 2 m/s 732 mmHg 64%
    16:00 +20°C° 0 mm 2 m/s 732 mmHg 66%
    17:00 +18°C° 0 mm 2 m/s 732 mmHg 73%
    18:00 +18°C° 0 mm 1 m/s 732 mmHg 80%
    19:00 +15°C° 0 mm 1 m/s 731 mmHg 87%
    20:00 +14°C° 0 mm 1 m/s 732 mmHg 86%
    21:00 +14°C° 0 mm 1 m/s 732 mmHg 85%
    22:00 +13°C° 0 mm 1 m/s 732 mmHg 85%
    23:00 +13°C° 0 mm 1 m/s 732 mmHg 81%

    Demain, 23 Mai, Jeudi

    Heure Température Précipitation Vent Pression Humidité
    00:00 +13°C° 0 mm 1 m/s 732 mmHg 78%
    01:00 +12°C° 0 mm 1 m/s 732 mmHg 74%
    02:00 +12°C° 0 mm 1 m/s 732 mmHg 72%
    03:00 +12°C° 0 mm 1 m/s 732 mmHg 70%
    04:00 +12°C° 0 mm 1 m/s 732 mmHg 68%
    05:00 +14°C° 0 mm 1 m/s 732 mmHg 65%
    06:00 +16°C° 0 mm 1 m/s 732 mmHg 63%
    07:00 +18°C° 0 mm 1 m/s 732 mmHg 60%
    08:00 +20°C° 0 mm 1 m/s 732 mmHg 57%
    09:00 +21°C° 0 mm 1 m/s 732 mmHg 53%
    10:00 +23°C° 0 mm 1 m/s 732 mmHg 50%
    11:00 +23°C° 0.1 mm 2 m/s 732 mmHg 52%
    12:00 +23°C° 0.1 mm 2 m/s 731 mmHg 54%
    13:00 +22°C° 0.1 mm 3 m/s 731 mmHg 56%
    14:00 +23°C° 0.4 mm 2 m/s 731 mmHg 60%
    15:00 +21°C° 0.4 mm 2 m/s 730 mmHg 64%
    16:00 +20°C° 0.4 mm 2 m/s 730 mmHg 68%
    17:00 +19°C° 0.3 mm 2 m/s 730 mmHg 75%
    18:00 +18°C° 0.3 mm 1 m/s 730 mmHg 82%
    19:00 +15°C° 0.3 mm 1 m/s 730 mmHg 90%
    20:00 +15°C° 0 mm 1 m/s 730 mmHg 90%
    21:00 +14°C° 0 mm 1 m/s 730 mmHg 90%
    22:00 +14°C° 0 mm 1 m/s 730 mmHg 90%
    23:00 +13°C° 0 mm 1 m/s 730 mmHg 90%

    Après-demain, 24 Mai, Vendredi

    Heure Température Précipitation Vent Pression Humidité
    00:00 +13°C° 0 mm 1 m/s 730 mmHg 90%
    01:00 +13°C° 0 mm 1 m/s 730 mmHg 89%
    02:00 +13°C° 0 mm 1 m/s 730 mmHg 89%
    03:00 +13°C° 0 mm 1 m/s 730 mmHg 89%
    04:00 +13°C° 0 mm 1 m/s 729 mmHg 89%
    05:00 +14°C° 0 mm 1 m/s 730 mmHg 84%
    06:00 +16°C° 0 mm 1 m/s 730 mmHg 79%
    07:00 +19°C° 0 mm 1 m/s 730 mmHg 74%
    08:00 +20°C° 0.2 mm 1 m/s 730 mmHg 70%
    09:00 +20°C° 0.2 mm 2 m/s 730 mmHg 66%
    10:00 +21°C° 0.2 mm 2 m/s 730 mmHg 63%
    11:00 +21°C° 1.1 mm 2 m/s 730 mmHg 64%
    12:00 +21°C° 1.1 mm 2 m/s 729 mmHg 65%
    13:00 +21°C° 1.1 mm 3 m/s 729 mmHg 67%
    14:00 +21°C° 0.8 mm 3 m/s 729 mmHg 70%
    15:00 +20°C° 0.8 mm 2 m/s 729 mmHg 72%
    16:00 +20°C° 0.8 mm 2 m/s 729 mmHg 75%
    17:00 +19°C° 0.4 mm 2 m/s 729 mmHg 81%
    18:00 +18°C° 0.4 mm 1 m/s 729 mmHg 86%
    19:00 +16°C° 0.4 mm 1 m/s 729 mmHg 92%
    20:00 +15°C° 0 mm 1 m/s 730 mmHg 92%
    21:00 +15°C° 0 mm 1 m/s 730 mmHg 92%
    22:00 +14°C° 0 mm 1 m/s 731 mmHg 93%
    23:00 +14°C° 0 mm 1 m/s 731 mmHg 93%

    25 Mai, Samedi

    Heure Température Précipitation Vent Pression Humidité
    00:00 +13°C° 0 mm 1 m/s 731 mmHg 92%
    01:00 +13°C° 0 mm 1 m/s 731 mmHg 92%
    02:00 +13°C° 0 mm 1 m/s 731 mmHg 91%
    03:00 +13°C° 0 mm 1 m/s 731 mmHg 91%
    04:00 +13°C° 0 mm 1 m/s 731 mmHg 90%
    05:00 +14°C° 0 mm 1 m/s 731 mmHg 86%
    06:00 +16°C° 0 mm 1 m/s 731 mmHg 81%
    07:00 +19°C° 0 mm 1 m/s 732 mmHg 76%
    08:00 +20°C° 0 mm 1 m/s 732 mmHg 72%
    09:00 +21°C° 0 mm 1 m/s 732 mmHg 67%
    10:00 +21°C° 0 mm 2 m/s 732 mmHg 63%
    11:00 +23°C° 0 mm 2 m/s 732 mmHg 63%
    12:00 +23°C° 0 mm 2 m/s 732 mmHg 62%
    13:00 +24°C° 0 mm 2 m/s 732 mmHg 62%
    14:00 +23°C° 0 mm 2 m/s 732 mmHg 64%
    15:00 +23°C° 0 mm 2 m/s 732 mmHg 66%
    16:00 +23°C° 0 mm 2 m/s 732 mmHg 69%
    17:00 +20°C° 0 mm 2 m/s 732 mmHg 76%
    18:00 +19°C° 0 mm 1 m/s 732 mmHg 83%
    19:00 +16°C° 0 mm 1 m/s 732 mmHg 90%
    20:00 +16°C° 0 mm 1 m/s 732 mmHg 91%
    21:00 +15°C° 0 mm 1 m/s 733 mmHg 91%
    22:00 +15°C° 0 mm 1 m/s 733 mmHg 92%
    23:00 +15°C° 0 mm 1 m/s 733 mmHg 90%

    26 Mai, Dimanche

    Heure Température Précipitation Vent Pression Humidité
    00:00 +14°C° 0 mm 1 m/s 733 mmHg 87%
    01:00 +14°C° 0 mm 1 m/s 733 mmHg 85%
    02:00 +14°C° 0 mm 1 m/s 733 mmHg 83%
    03:00 +14°C° 0 mm 1 m/s 733 mmHg 81%
    04:00 +14°C° 0 mm 1 m/s 732 mmHg 78%
    05:00 +16°C° 0 mm 1 m/s 733 mmHg 73%
    06:00 +16°C° 0 mm 0 m/s 733 mmHg 67%
    07:00 +18°C° 0 mm 0 m/s 733 mmHg 61%
    08:00 +19°C° 0 mm 0 m/s 733 mmHg 58%
    09:00 +23°C° 0 mm 1 m/s 733 mmHg 55%
    10:00 +24°C° 0 mm 1 m/s 733 mmHg 51%
    11:00 +24°C° 0 mm 1 m/s 733 mmHg 51%
    12:00 +24°C° 0 mm 2 m/s 733 mmHg 52%
    13:00 +25°C° 0 mm 2 m/s 732 mmHg 52%
    14:00 +24°C° 0 mm 2 m/s 732 mmHg 53%
    15:00 +24°C° 0 mm 2 m/s 732 mmHg 55%
    16:00 +24°C° 0 mm 2 m/s 732 mmHg 57%
    17:00 +22°C° 0 mm 1 m/s 732 mmHg 65%
    18:00 +20°C° 0 mm 1 m/s 732 mmHg 73%
    19:00 +16°C° 0 mm 0 m/s 732 mmHg 82%
    20:00 +18°C° 0 mm 1 m/s 732 mmHg 81%
    21:00 +16°C° 0 mm 1 m/s 732 mmHg 80%
    22:00 +16°C° 0 mm 1 m/s 732 mmHg 80%
    23:00 +16°C° 0 mm 1 m/s 732 mmHg 75%

    27 Mai, Lundi

    Heure Température Précipitation Vent Pression Humidité
    00:00 +16°C° 0 mm 1 m/s 732 mmHg 69%
    01:00 +16°C° 0 mm 1 m/s 732 mmHg 64%
    02:00 +16°C° 0 mm 1 m/s 732 mmHg 61%
    03:00 +18°C° 0 mm 1 m/s 732 mmHg 57%
    04:00 +18°C° 0 mm 1 m/s 732 mmHg 53%
    05:00 +19°C° 0 mm 1 m/s 733 mmHg 53%
    06:00 +21°C° 0 mm 1 m/s 733 mmHg 54%
    07:00 +22°C° 0 mm 1 m/s 733 mmHg 54%
    08:00 +23°C° 0 mm 1 m/s 733 mmHg 50%
    09:00 +25°C° 0 mm 1 m/s 733 mmHg 46%
    10:00 +27°C° 0 mm 1 m/s 733 mmHg 42%
    11:00 +28°C° 0 mm 1 m/s 733 mmHg 42%
    12:00 +28°C° 0 mm 1 m/s 732 mmHg 42%
    13:00 +29°C° 0 mm 1 m/s 732 mmHg 42%
    14:00 +29°C° 0 mm 1 m/s 732 mmHg 45%
    15:00 +28°C° 0 mm 2 m/s 732 mmHg 49%
    16:00 +28°C° 0 mm 2 m/s 731 mmHg 52%
    17:00 +26°C° 0 mm 1 m/s 731 mmHg 59%
    18:00 +24°C° 0 mm 1 m/s 731 mmHg 66%
    19:00 +20°C° 0 mm 0 m/s 731 mmHg 73%
    20:00 +19°C° 0 mm 0 m/s 732 mmHg 72%
    21:00 +21°C° 0 mm 1 m/s 732 mmHg 71%
    22:00 +20°C° 0 mm 2 m/s 732 mmHg 70%
    23:00 +20°C° 0 mm 2 m/s 732 mmHg 69%
    Voir plus